Regional Weather Roundup
Issued by NWS

Home | Current Version | Previous Version | Graphics & Text | Print | Product List | Glossary On
Versions: 1 2 3 4 5 6 7 8 9 10 11 12 13 14 15 16 17 18 19 20 21 22 23 24 25 26 27 28 29 30 31 32 33 34 35 36 37 38 39 40 41 42 43 44 45 46 47 48 49 50
000
ASUS45 KCYS 221210
RWRWY

WYOMING REGIONAL WEATHER ROUNDUP
NATIONAL WEATHER SERVICE CHEYENNE WY
600 AM MDT TUE JUL 22 2014

NOTE:  "FAIR" INDICATES FEW OR NO CLOUDS BELOW 12,000 FEET
WITH NO SIGNIFICANT WEATHER AND/OR OBSTRUCTIONS TO VISIBILITY.

WYZ001-221300-
YELLOWSTONE NATIONAL PARK

CITY           SKY/WX    TMP DP  RH WIND       PRES   REMARKS
LK YELLOWSTONE   N/A     40  39  97 NW5       30.44S
6HR MIN TEMP:  40; 6HR MAX TEMP:  48;

W YELLOWSTONE  NOT AVBL

$$
WYZ002>013-054>058-071-098>099-221300-
NORTHERN WYOMING

CITY           SKY/WX    TMP DP  RH WIND       PRES   REMARKS
JACKSON        PTCLDY    45  45 100 NE3       30.37R
CODY           MOCLDY    61  43  51 S5        30.24R
GREYBULL       PTCLDY    63  51  65 CALM      30.18R
6HR MIN TEMP:  61; 6HR MAX TEMP:  74;

WORLAND        PTCLDY    56  49  77 S8        30.19R
6HR MIN TEMP:  56; 6HR MAX TEMP:  67;

SHERIDAN       PTCLDY    53  51  93 CALM      30.17F
6HR MIN TEMP:  53; 6HR MAX TEMP:  63;

BUFFALO        MOCLDY    65  46  50 S8        30.24F
6HR MIN TEMP:  60; 6HR MAX TEMP:  69;

GILLETTE       MOCLDY    62  55  77 VRB5      30.22R
6HR MIN TEMP:  58; 6HR MAX TEMP:  64;

HULETT         FAIR      57  52  82 MISG      30.25
NEWCASTLE      FAIR      63  52  67 MISG      30.23

$$
WYZ014>020-022>026-101>103-221300-
CENTRAL WYOMING

CITY           SKY/WX    TMP DP  RH WIND       PRES   REMARKS
BIG PINEY      PTCLDY    45  38  76 E8        30.42R
6HR MIN TEMP:  45; 6HR MAX TEMP:  58;

PINEDALE       MOSUNNY   43  41  93 CALM      30.43R
DUBOIS         FAIR      50  37  62 NW10      30.41R
LANDER         CLEAR     58  39  49 NE9       30.29R
6HR MIN TEMP:  58; 6HR MAX TEMP:  66;

RIVERTON       PTCLDY    57  42  57 NW10      30.29R
6HR MIN TEMP:  56; 6HR MAX TEMP:  68;

CASPER         CLEAR     54  51  90 NW8       30.29R
6HR MIN TEMP:  54; 6HR MAX TEMP:  66;

DOUGLAS        PTCLDY    59  52  77 CALM      30.28R
6HR MIN TEMP:  58; 6HR MAX TEMP:  74; 6HR PCP: TRACE;


$$
WYZ021-027>030-104>119-221300-
SOUTHERN WYOMING

CITY           SKY/WX    TMP DP  RH WIND       PRES   REMARKS
EVANSTON       CLEAR     56  35  45 E8        30.39R
6HR MIN TEMP:  54; 6HR MAX TEMP:  63;

KEMMERER       MOSUNNY   46  37  71 NW8       30.43R
FORT BRIDGER   FAIR      59  32  36 S7        30.42R
ROCK SPRINGS   CLEAR     60  32  34 S5        30.38R
6HR MIN TEMP:  58; 6HR MAX TEMP:  72;

DIXON          FAIR      50  33  52 E5        30.40R
RAWLINS        CLEAR     51  40  65 N6        30.39R
6HR MIN TEMP:  50; 6HR MAX TEMP:  65;

SARATOGA       FAIR      46  32  57 S3        30.40R
LARAMIE        CLEAR     50  38  63 NW3       30.41R
6HR MIN TEMP:  49; 6HR MAX TEMP:  62;

CHEYENNE       CLEAR     62  50  64 N16G23    30.32R
6HR MIN TEMP:  61; 6HR MAX TEMP:  68;

TORRINGTON     PTCLDY    66  60  81 NW5       30.23R
6HR MIN TEMP:  64; 6HR MAX TEMP:  74;

PINE BLUFFS    FAIR      59  50  72 NW7       30.27R

$$



USA.gov is the U.S. government's official web portal to all federal, state and local government web resources and services.